Location: Julian California
(33.0790°N, 116.6010°W)
Time: 09:20:02
(UTC-07:00)

Cosmos 1943 - Pass Details

Date: 14 June 2018
Orbit: 834 x 849 km, 71.0° (Epoch: 22 October)

Event Time Altitude Azimuth Distance (km) Brightness Sun altitude
Rises 22:22:38 0° 336° (NNW) 3,401 7.7 -24.0°
Reaches altitude 10° 22:25:06 10° 334° (NNW) 2,460 6.7 -24.3°
Maximum altitude 22:30:42 70° 252° (WSW) 891 3.3 -24.9°
Enters shadow 22:31:44 56° 197° (SSW) 985 3.3 -25.1°
